Weather in Zhirovichi

Belarus     53°00′47″N   25°20′39″E
temp.,
°C
wind,
m/s
gust,
m/s
humid.,
%
clouds,
%
prec.,
mm/h
press.,
hPa
HPBL,
m
20 may, fri
fri2000:00+12wsw3468100 0.0 102156
03:00+11sw2474100 0.0 102061
06:00+11sw2278100 0.0 101923
09:00+16ssw3567100 0.0 1017235
12:00+20sw465499 0.0 1015753
15:00+21wsw585567 0.0 1014812
18:00+22w696997 0.2 10121185
21:00+17wnw51389100 1.2 1012612
21 may, sat
sat2100:00+12w4119488 0.0 1012287
03:00+11w2696100 0.0 1010137
06:00+11sw2394100 0.0 100871
09:00+12se3598100 3.7 1004212
12:00+14nw4109695 8.6 1003539
15:00+12w91586100 8.9 10051206
18:00+14w9167370 0.3 10051578
21:00+10wnw8188172 1.0 10061516
22 may, sun
sun2200:00+9w91781100 0.3 10051436
03:00+9wnw91681100 0.6 10051078
06:00+8wnw81388100 0.3 1005957
09:00+8wnw61189100 0.5 1006838
12:00+8nw5994100 0.5 1008656
15:00+9nw3696100 1.2 1009467
18:00+9nw1297100 0.6 1010167
21:00+9nnw2396100 0.7 101075
23 may, mon
mon2300:00+8nnw239495 0.0 101171
03:00+7nne2395100 0.0 101256
06:00+6nnw229535 0.0 101320
09:00+12nne23745 0.0 1013366
12:00+16n334672 0.1 10132107
15:00+16n3349100 0.1 10131669
18:00+16nne23485 0.0 10131379
21:00+11nne22722 0.0 101412
24 may, tue
tue2400:00+8e11770 0.0 101510
03:00+6ese22820 0.0 101511
06:00+6ese23854 0.0 101643
09:00+13se456129 0.0 1016430
12:00+17sse5645100 0.0 10151619
15:00+18s5644100 0.0 10151652
18:00+17sse4655100 0.0 10151036
21:00+12se357599 0.0 101588